Location: Malvern Link
(52.1333°N, 2.3000°W)
Time: 01:21:23
(UTC+00:00)

UKube-1 - Visible Passes

Search period start: 26 June 2022 00:00
Search period end: 06 July 2022 00:00
Orbit: 610 x 614 km, 98.4° (Epoch: 25 June)

Date Brightness Start Highest point End Pass type
(mag) Time Alt. Az. Time Alt. Az. Time Alt. Az.
26 Jun ? 22:30:10 10° NNE 22:34:30 81° WNW 22:38:48 10° SSW visible
27 Jun ? 00:07:34 10° NNW 00:09:44 14° NW 00:11:51 10° W visible
27 Jun ? 22:45:03 10° N 22:49:19 59° WNW 22:53:32 10° SSW visible
28 Jun ? 00:23:27 10° NW 00:24:20 11° NW 00:25:15 10° WNW visible
28 Jun ? 21:24:24 10° NE 21:28:00 25° E 21:31:34 10° SSE visible
28 Jun ? 22:59:58 10° N 23:04:05 44° WNW 23:08:09 10° SW visible
29 Jun ? 21:39:00 10° NNE 21:42:56 33° E 21:46:49 10° SSE visible
29 Jun ? 23:14:57 10° N 23:18:49 33° WNW 23:22:41 10° SW visible
30 Jun ? 21:53:40 10° NNE 21:57:50 45° E 22:01:53 10° S visible
30 Jun ? 23:29:58 10° N 23:33:32 26° WNW 23:37:04 10° WSW visible
01 Jul ? 22:08:24 10° NNE 22:12:42 62° ESE 22:16:51 11° S visible
01 Jul ? 23:45:04 10° NNW 23:48:13 20° WNW 23:51:20 10° WSW visible
02 Jul ? 22:23:12 10° NNE 22:27:32 85° ESE 22:31:48 10° SSW visible
03 Jul ? 00:00:17 10° NNW 00:02:52 16° NW 00:05:25 10° W visible
03 Jul ? 22:38:02 10° NNE 22:42:20 71° WNW 22:46:36 10° SSW visible
04 Jul ? 00:15:44 10° NNW 00:17:29 12° NW 00:19:13 10° WNW visible
04 Jul ? 21:17:37 10° NE 21:20:55 21° E 21:24:11 10° SE visible
04 Jul ? 22:52:54 10° N 22:57:07 52° WNW 23:01:16 10° SW visible
05 Jul ? 21:32:06 10° NE 21:35:50 28° E 21:39:33 10° SSE visible
05 Jul ? 23:07:50 10° N 23:11:51 39° WNW 23:15:50 10° SW visible
